Location: Frankfurt am Main
(50.1109°N, 8.6821°E)
Time: 09:46:38
(UTC+01:00)

N. Korean satellite - Visible Passes

Search period start: 21 February 2020 00:00
Search period end: 02 March 2020 00:00
Orbit: 456 x 505 km, 97.2° (Epoch: 20 February)

Date Brightness Start Highest point End Pass type
(mag) Time Alt. Az. Time Alt. Az. Time Alt. Az.
21 Feb 7.3 06:07:39 10° NNE 06:11:21 58° E 06:15:00 10° S visible
22 Feb 8.7 05:42:22 10° NNE 05:45:43 30° E 05:49:01 10° SSE visible
23 Feb 9.8 05:17:29 10° NE 05:19:58 17° E 05:22:26 10° SE visible
24 Feb 6.6 06:24:21 10° NNE 06:28:06 89° WNW 06:31:49 10° SSW visible
24 Feb 10.5 18:40:03 10° WSW 18:41:15 11° W 18:42:28 10° WNW visible
25 Feb 7.8 05:58:54 10° NNE 06:02:32 46° E 06:06:05 10° S visible
26 Feb 9.1 05:33:43 10° NE 05:36:50 25° E 05:39:55 10° SSE visible
27 Feb 10.0 05:09:06 10° ENE 05:11:04 14° E 05:13:00 10° ESE visible
27 Feb 6.7 06:41:08 10° N 06:44:48 57° WNW 06:48:25 10° SSW visible
28 Feb 6.9 06:15:33 10° NNE 06:19:16 74° ESE 06:22:56 10° S visible
29 Feb 8.3 05:50:10 10° NNE 05:53:39 37° E 05:57:04 10° SSE visible
01 Mar 9.5 05:25:06 10° NE 05:27:55 20° E 05:30:42 10° SE visible
